Weather in Bengkulu

Indonesia     3°50′12″S   102°19′31″E
temp.,
°C
wind,
m/s
gust,
m/s
humid.,
%
clouds,
%
prec.,
mm/h
press.,
hPa
HPBL,
m
2 august, mon
mon201:00+24n239092 0.4 1012160
04:00+23n2492100 2.0 1010195
07:00+23n349387 6.4 1011170
10:00+27wnw347270 1.8 1013626
13:00+28wnw567252 5.7 1011863
16:00+27wsw347739 0.1 1010588
19:00+25nne018418 0.1 1011268
22:00+24ene229049 0.0 1012133
3 august, tue
tue301:00+24ene119138 0.0 101194
04:00+23ene118969 0.0 1010103
07:00+24ene1186100 0.0 1011109
10:00+29s116715 0.0 1012582
13:00+29sw436983 0.1 1010809
16:00+28sse347978 2.6 1009473
19:00+25ese2288100 5.2 1011175
22:00+24nne229115 1.1 1013103
4 august, wed
wed401:00+24n129156 1.8 1012131
04:00+23nne2291100 1.1 1012120
07:00+24n239092 1.4 1013120
10:00+29wnw236636 0.1 1013626
13:00+29wsw436413 0.2 1012939
16:00+28w3468100 0.7 1011760
19:00+26nw237952 0.9 1012394
22:00+25n238960 0.1 1014184
5 august, thu
thu501:00+24n239293 1.4 1012143
04:00+24n239154 0.3 1012161
07:00+23ne228988 0.3 1013134
10:00+28nnw126964 0.0 1013525
13:00+29wsw346574 0.0 1011913
16:00+28w347146 1.1 1010704
19:00+25nw2288100 2.8 1012111
22:00+25nne229077 0.7 1013125
6 august, fri
fri601:00+24nne1292100 0.9 1012102
04:00+23ne129281 0.1 1011104
07:00+24ne129092 0.2 1012119
10:00+28wnw237045 0.0 1013662
13:00+29wsw4467100 0.0 1010947
16:00+28w4574100 0.4 1009724
19:00+25nnw2388100 2.9 1011167
22:00+24nne2392100 1.9 1013138